Date String (YYYY-MM-DD hh:mm:ss) UTC,Instrument flags,Ambient pressure (hPa),Sample flow (lpm),Bypass flow (lpm),Sample temperature (°C),Ambient temperature (°C),ASC tube jacket temperature (°C),LED temperature (°C),Box temperature (°C),Sample RH (%),Span deviation,Mass concentration (μg/m³),Mass concentration (μg/m³),Mass concentration (μg/m³)
DateTimeUTC,F1_M11,P_M11,Q1_M11,Q2_M11,T1_M11,T2_M11,T3_M11,T4_M11,T5_M11,U1_M11,ZSPAN_M11,X0_M11,X2_M11,X1_M11
2021-11-11 07:00:00,,0827.2,5.00,0.00,23.0,22.1,00.0,32.0,24.8,10.9,0000.0,0009.06,0003.87,0003.26
2021-11-11 07:01:00,,0827.2,4.99,0.00,23.0,22.1,00.0,32.0,24.8,11.0,0000.0,0009.76,0004.01,0003.31
2021-11-11 07:02:00,,0827.2,5.00,0.00,22.9,22.1,00.0,32.0,24.7,11.0,0000.0,0010.42,0004.12,0003.35
2021-11-11 07:03:00,,0827.3,5.01,0.00,22.9,22.1,00.0,32.0,24.7,11.1,0000.0,0010.71,0004.22,0003.40
2021-11-11 07:04:00,,0827.2,5.00,0.00,22.9,22.1,00.0,32.0,24.7,11.1,0000.0,0011.74,0004.36,0003.44
2021-11-11 07:05:00,,0827.2,5.01,0.00,22.9,22.1,00.0,32.0,24.7,11.1,0000.0,0012.50,0004.47,0003.47
2021-11-11 07:06:00,,0827.3,5.00,0.00,22.9,22.0,00.0,32.0,24.6,11.2,0000.0,0012.79,0004.54,0003.50
2021-11-11 07:07:00,,0827.4,5.01,0.00,22.8,22.0,00.0,32.0,24.6,11.2,0000.0,0013.49,0004.61,0003.52
2021-11-11 07:08:00,,0827.4,5.01,0.00,22.8,22.0,00.0,32.0,24.6,11.2,0000.0,0014.80,0004.68,0003.55
2021-11-11 07:09:00,,0827.4,4.98,0.00,22.8,22.0,00.0,31.9,24.6,11.2,0000.0,0014.21,0004.70,0003.56
2021-11-11 07:10:00,,0827.4,5.02,0.00,22.8,22.0,00.0,31.9,24.6,11.3,0000.1,0013.64,0004.70,0003.57
2021-11-11 07:11:00,,0827.3,4.99,0.00,22.8,22.0,00.0,31.9,24.6,11.3,-000.1,0013.65,0004.69,0003.58
2021-11-11 07:12:00,,0827.3,5.00,0.00,22.8,22.0,00.0,31.9,24.6,11.4,-000.2,0013.50,0004.70,0003.58
2021-11-11 07:13:00,,0827.4,4.99,0.00,22.8,22.0,00.0,31.9,24.6,11.5,0000.0,0013.32,0004.66,0003.56
2021-11-11 07:14:00,,0827.4,5.00,0.00,22.7,22.0,00.0,31.9,24.5,11.6,0000.0,0013.10,0004.60,0003.55
2021-11-11 07:15:00,,0827.4,4.99,0.00,22.7,22.0,00.0,31.9,24.4,11.6,0000.0,0012.32,0004.55,0003.55
2021-11-11 07:16:00,,0827.4,5.00,0.00,22.7,22.0,00.0,31.9,24.4,11.7,0000.0,0011.87,0004.56,0003.55
2021-11-11 07:17:00,,0827.4,5.01,0.00,22.7,21.9,00.0,31.8,24.4,11.7,0000.5,0012.60,0004.57,0003.55
2021-11-11 07:18:00,,0827.4,4.99,0.00,22.7,21.9,00.0,31.8,24.4,11.8,0000.0,0012.07,0004.56,0003.53
2021-11-11 07:19:00,,0827.4,5.01,0.00,22.6,21.8,00.0,31.8,24.3,11.9,0000.0,0010.84,0004.53,0003.53
2021-11-11 07:20:00,,0827.4,5.01,0.00,22.6,21.8,00.0,31.8,24.4,11.9,0000.0,0010.65,0004.52,0003.54
2021-11-11 07:21:00,,0827.4,5.00,0.00,22.6,21.8,00.0,31.8,24.3,11.9,0000.0,0011.02,0004.50,0003.53
2021-11-11 07:22:00,,0827.4,5.01,0.00,22.6,21.7,00.0,31.8,24.3,12.0,0000.0,0011.17,0004.50,0003.52
2021-11-11 07:23:00,,0827.4,4.99,0.00,22.5,21.7,00.0,31.7,24.2,12.2,0000.0,0010.99,0004.44,0003.51
2021-11-11 07:24:00,,0827.4,5.01,0.00,22.5,21.7,00.0,31.7,24.2,12.3,0000.0,0010.78,0004.45,0003.51
2021-11-11 07:25:00,,0827.4,5.01,0.00,22.5,21.6,00.0,31.7,24.2,12.2,0000.0,0010.85,0004.47,0003.51
2021-11-11 07:26:00,,0827.5,5.00,0.00,22.4,21.6,00.0,31.7,24.2,12.2,0000.0,0010.79,0004.45,0003.49
2021-11-11 07:27:00,,0827.5,4.99,0.00,22.4,21.6,00.0,31.7,24.2,12.3,0000.0,0010.40,0004.42,0003.49
2021-11-11 07:28:00,,0827.5,5.02,0.00,22.4,21.7,00.0,31.6,24.2,12.3,0000.0,0009.28,0004.40,0003.49
2021-11-11 07:29:00,,0827.5,4.99,0.00,22.4,21.7,00.0,31.6,24.2,12.3,0000.0,0009.65,0004.38,0003.48
2021-11-11 07:30:00,,0827.5,4.99,0.00,22.4,21.7,00.0,31.6,24.2,12.3,0000.0,0009.87,0004.38,0003.47
2021-11-11 07:31:00,,0827.6,5.01,0.00,22.4,21.7,00.0,31.6,24.2,12.4,0000.0,0009.73,0004.34,0003.45
2021-11-11 07:32:00,,0827.5,5.00,0.00,22.5,21.7,00.0,31.6,24.2,12.4,0000.0,0009.27,0004.33,0003.44
2021-11-11 07:33:00,,0827.3,5.00,0.00,22.5,21.7,00.0,31.6,24.2,12.3,0000.0,0009.39,0004.28,0003.42
2021-11-11 07:34:00,,0827.2,5.01,0.00,22.5,21.7,00.0,31.6,24.2,12.0,0000.0,0009.43,0004.27,0003.41
2021-11-11 07:35:00,,0827.3,5.01,0.00,22.4,21.7,00.0,31.6,24.2,11.6,0000.0,0009.26,0004.23,0003.40
2021-11-11 07:36:00,,0827.4,4.99,0.00,22.4,21.7,00.0,31.6,24.2,10.8,0000.0,0009.16,0004.18,0003.39
2021-11-11 07:37:00,,0827.4,5.01,0.00,22.4,21.7,00.0,31.6,24.2,11.6,0000.0,0009.14,0004.18,0003.39
2021-11-11 07:38:00,,0827.4,5.00,0.00,22.4,21.7,00.0,31.5,24.2,11.2,0000.0,0009.14,0004.16,0003.38
2021-11-11 07:39:00,,0827.5,4.99,0.00,22.4,21.7,00.0,31.5,24.2,11.3,0000.0,0009.34,0004.10,0003.37
2021-11-11 07:40:00,,0827.4,5.01,0.00,22.4,21.7,00.0,31.5,24.2,11.4,0000.0,0009.22,0004.07,0003.37
2021-11-11 07:41:00,,0827.4,4.99,0.00,22.4,21.7,00.0,31.5,24.2,11.7,0000.0,0008.91,0004.07,0003.37
2021-11-11 07:42:00,,0827.4,5.01,0.00,22.4,21.7,00.0,31.5,24.2,11.4,0000.0,0008.84,0004.04,0003.36
2021-11-11 07:43:00,,0827.5,4.99,0.00,22.4,21.7,00.0,31.5,24.2,11.5,0000.0,0008.99,0004.04,0003.35
2021-11-11 07:44:00,,0827.5,5.00,0.00,22.4,21.7,00.0,31.5,24.2,11.6,0000.0,0008.75,0004.04,0003.35
2021-11-11 07:45:00,,0827.4,5.00,0.00,22.4,21.8,00.0,31.5,24.2,12.0,0000.0,0008.54,0004.08,0003.36
2021-11-11 07:46:00,,0827.4,5.01,0.00,22.4,21.8,00.0,31.5,24.2,11.9,0000.0,0008.58,0004.08,0003.36
2021-11-11 07:47:00,,0827.4,5.00,0.00,22.4,21.8,00.0,31.5,24.2,11.9,0000.0,0008.58,0004.07,0003.35
2021-11-11 07:48:00,,0827.5,5.00,0.00,22.4,21.8,00.0,31.5,24.2,12.0,0000.0,0008.76,0004.06,0003.36
2021-11-11 07:49:00,,0827.4,5.00,0.00,22.4,21.8,00.0,31.5,24.2,12.0,0000.0,0009.33,0004.05,0003.35
2021-11-11 07:50:00,,0827.4,5.01,0.00,22.4,21.8,00.0,31.5,24.2,12.1,0000.0,0009.60,0004.10,0003.36
2021-11-11 07:51:00,,0827.5,4.99,0.00,22.4,21.8,00.0,31.5,24.2,12.1,0000.0,0009.16,0004.08,0003.36
2021-11-11 07:52:00,,0827.5,4.99,0.00,22.4,21.8,00.0,31.5,24.2,12.2,0000.0,0009.11,0004.06,0003.37
2021-11-11 07:53:00,,0827.5,5.01,0.00,22.4,21.8,00.0,31.5,24.2,12.3,0000.0,0009.14,0004.08,0003.38
2021-11-11 07:54:00,,0827.6,4.99,0.00,22.4,21.8,00.0,31.5,24.3,12.3,0000.0,0008.98,0004.07,0003.39
2021-11-11 07:55:00,,0827.6,5.00,0.00,22.5,21.8,00.0,31.5,24.3,12.3,0000.0,0008.94,0004.08,0003.39
2021-11-11 07:56:00,,0827.6,5.00,0.00,22.5,21.9,00.0,31.5,24.3,12.1,0000.0,0008.85,0004.06,0003.39
2021-11-11 07:57:00,,0827.6,5.00,0.00,22.5,21.9,00.0,31.5,24.3,12.0,0000.0,0009.37,0004.08,0003.41
2021-11-11 07:58:00,,0827.6,5.00,0.00,22.5,21.9,00.0,31.5,24.3,12.0,0000.0,0009.61,0004.14,0003.42
2021-11-11 07:59:00,,0827.5,5.00,0.00,22.5,21.9,00.0,31.5,24.3,12.0,0000.0,0009.43,0004.13,0003.42
